| time (UTC) | temp F | wind direction | speed knots | gust knots | rain 1hr in | rain 24hr in | rain mn in | humidity % | barometer mb |
| 20260505051537 | 52 | 293 | 0.0 | 0.0 | 0.00 | 0.00 | 0.00 | 98 | 1009.4 |
| 20260505050326 | 52 | 90 | 0.0 | 0.0 | 0.00 | 0.00 | 0.00 | 98 | 1009.4 |
| 20260505041526 | 54 | 248 | 0.0 | 0.0 | 0.00 | 0.00 | 0.00 | 97 | 1009.1 |
| 20260505040919 | 54 | 270 | 0.0 | 0.0 | 0.00 | 0.00 | 0.00 | 95 | 1009.1 |
| 20260505035138 | 55 | 270 | 0.0 | 0.0 | 0.00 | 0.00 | 0.00 | 93 | 1009.1 |
| 20260505034556 | 55 | 90 | 0.0 | 0.0 | 0.00 | 0.00 | 0.00 | 95 | 1009.1 |
| 20260505033913 | 55 | 113 | 0.0 | 0.0 | 0.00 | 0.00 | 0.00 | 95 | 1009.1 |
| 20260505033320 | 55 | 113 | 0.0 | 0.0 | 0.00 | 0.00 | 0.00 | 93 | 1009.1 |
| 20260505032719 | 55 | 270 | 0.0 | 1.7 | 0.00 | 0.00 | 0.00 | 94 | 1009.1 |
| 20260505032128 | 55 | 270 | 0.0 | 1.7 | 0.00 | 0.00 | 0.00 | 95 | 1009.1 |
| 20260505031514 | 55 | 270 | 1.7 | 1.7 | 0.00 | 0.00 | 0.00 | 95 | 1009.1 |
| 20260505030941 | 55 | 248 | 1.7 | 1.7 | 0.00 | 0.00 | 0.00 | 94 | 1009.1 |
| 20260505030344 | 56 | 270 | 1.7 | 1.7 | 0.00 | 0.00 | 0.00 | 93 | 1009.1 |
| 20260505025743 | 56 | 248 | 1.7 | 1.7 | 0.00 | 0.00 | 0.00 | 93 | 1009.1 |
| 20260505025129 | 56 | 270 | 1.7 | 1.7 | 0.00 | 0.00 | 0.00 | 93 | 1009.1 |
| 20260505024538 | 56 | 248 | 0.0 | 0.0 | 0.00 | 0.00 | 0.00 | 92 | 1009.1 |
| 20260505022123 | 58 | 270 | 0.0 | 0.0 | 0.00 | 0.00 | 0.00 | 88 | 1009.1 |
| 20260505021512 | 58 | 270 | 0.0 | 0.0 | 0.00 | 0.00 | 0.00 | 88 | 1009.1 |
| 20260505020926 | 58 | 248 | 0.0 | 0.0 | 0.00 | 0.00 | 0.00 | 88 | 1009.4 |
| 20260505020317 | 59 | 270 | 0.0 | 0.0 | 0.00 | 0.00 | 0.00 | 86 | 1009.4 |
| 20260505015154 | 61 | 68 | 0.0 | 0.0 | 0.00 | 0.00 | 0.00 | 80 | 1009.4 |
| 20260505014530 | 61 | 68 | 0.0 | 0.0 | 0.00 | 0.00 | 0.00 | 80 | 1009.4 |
| 20260505013918 | 62 | 135 | 0.0 | 0.0 | 0.00 | 0.00 | 0.00 | 80 | 1009.4 |
| 20260505013318 | 62 | 90 | 0.0 | 0.0 | 0.00 | 0.00 | 0.00 | 79 | 1009.1 |
| 20260505012711 | 63 | 113 | 0.0 | 0.0 | 0.00 | 0.00 | 0.00 | 76 | 1009.1 |
| 20260505012147 | 64 | 113 | 0.0 | 0.0 | 0.00 | 0.00 | 0.00 | 76 | 1009.4 |
| 20260505011536 | 65 | 135 | 0.0 | 0.0 | 0.00 | 0.00 | 0.00 | 71 | 1009.1 |
| 20260505010914 | 65 | 180 | 0.0 | 0.0 | 0.00 | 0.00 | 0.00 | 72 | 1009.1 |
| 20260505010331 | 66 | 225 | 0.0 | 0.9 | 0.00 | 0.00 | 0.00 | 70 | 1009.1 |
| 20260505005751 | 67 | 158 | 0.0 | 1.7 | 0.00 | 0.00 | 0.00 | 69 | 1009.1 |
| 20260505005121 | 68 | 113 | 0.0 | 0.0 | 0.00 | 0.00 | 0.00 | 68 | 1009.1 |
| 20260505004534 | 68 | 180 | 0.9 | 0.9 | 0.00 | 0.00 | 0.00 | 67 | 1009.1 |
| 20260505003929 | 68 | 180 | 1.7 | 2.6 | 0.00 | 0.00 | 0.00 | 67 | 1009.1 |
| 20260505003354 | 68 | 180 | 0.9 | 1.7 | 0.00 | 0.00 | 0.00 | 66 | 1009.1 |
| 20260505002111 | 70 | 180 | 1.7 | 2.6 | 0.00 | 0.00 | 0.00 | 60 | 1009.1 |
| 20260505001513 | 70 | 270 | 0.0 | 3.5 | 0.00 | 0.00 | 0.00 | 61 | 1009.1 |
| 20260505000916 | 71 | 225 | 1.7 | 3.5 | 0.00 | 0.00 | 0.00 | 58 | 1009.1 |
| 20260505000318 | 71 | 203 | 2.6 | 3.5 | 0.00 | 0.00 | 0.00 | 57 | 1008.8 |
| 20260504235715 | 71 | 203 | 2.6 | 5.2 | 0.00 | 0.00 | 0.00 | 58 | 1008.8 |
| 20260504234528 | 73 | 158 | 2.6 | 2.6 | 0.00 | 0.00 | 0.00 | 58 | 1008.8 |
| 20260504233933 | 74 | 270 | 1.7 | 7.8 | 0.00 | 0.00 | 0.00 | 55 | 1008.8 |
| 20260504233341 | 76 | 23 | 0.0 | 2.6 | 0.00 | 0.00 | 0.00 | 57 | 1008.8 |
| 20260504232715 | 73 | 90 | 0.0 | 5.2 | 0.00 | 0.00 | 0.00 | 58 | 1008.4 |
| 20260504232153 | 73 | 135 | 0.0 | 1.7 | 0.00 | 0.00 | 0.00 | 60 | 1008.4 |
| 20260504231519 | 72 | 270 | 4.3 | 4.3 | 0.00 | 0.00 | 0.00 | 59 | 1008.4 |
| 20260504230952 | 73 | 248 | 2.6 | 8.7 | 0.00 | 0.00 | 0.00 | 60 | 1008.4 |
| 20260504225715 | 74 | 225 | 0.9 | 1.7 | 0.00 | 0.00 | 0.00 | 58 | 1008.4 |
| 20260504225147 | 75 | 270 | 3.5 | 4.3 | 0.00 | 0.00 | 0.00 | 56 | 1008.4 |
| 20260504224511 | 75 | 248 | 0.0 | 2.6 | 0.00 | 0.00 | 0.00 | 58 | 1008.4 |
| 20260504223935 | 73 | 270 | 1.7 | 4.3 | 0.00 | 0.00 | 0.00 | 56 | 1008.8 |
| 20260504223316 | 73 | 270 | 3.5 | 5.2 | 0.00 | 0.00 | 0.00 | 55 | 1008.8 |
| 20260504222753 | 75 | 248 | 4.3 | 7.0 | 0.00 | 0.00 | 0.00 | 52 | 1008.8 |
| 20260504222112 | 74 | 270 | 4.3 | 7.8 | 0.00 | 0.00 | 0.00 | 54 | 1008.8 |
| 20260504221522 | 74 | 270 | 5.2 | 8.7 | 0.00 | 0.00 | 0.00 | 54 | 1009.1 |
| 20260504220927 | 75 | 270 | 5.2 | 7.0 | 0.00 | 0.00 | 0.00 | 52 | 1008.8 |
| 20260504220316 | 75 | 270 | 8.7 | 8.7 | 0.00 | 0.00 | 0.00 | 53 | 1008.8 |
| 20260504215123 | 74 | 270 | 5.2 | 10.4 | 0.00 | 0.00 | 0.00 | 55 | 1008.4 |
| 20260504214552 | 74 | 270 | 8.7 | 8.7 | 0.00 | 0.00 | 0.00 | 55 | 1008.4 |
| 20260504213951 | 75 | 270 | 5.2 | 7.8 | 0.00 | 0.00 | 0.00 | 53 | 1008.4 |
| 20260504211528 | 73 | 225 | 3.5 | 8.7 | 0.00 | 0.00 | 0.00 | 54 | 1008.8 |
| 20260504210950 | 74 | 203 | 3.5 | 3.5 | 0.00 | 0.00 | 0.00 | 54 | 1008.4 |
| 20260504210330 | 74 | 270 | 7.8 | 9.6 | 0.00 | 0.00 | 0.00 | 54 | 1008.4 |
| 20260504205734 | 74 | 270 | 7.0 | 13.9 | 0.00 | 0.00 | 0.00 | 53 | 1008.4 |
| 20260504205140 | 75 | 248 | 7.8 | 8.7 | 0.00 | 0.00 | 0.00 | 53 | 1008.4 |
| 20260504204542 | 75 | 293 | 6.1 | 9.6 | 0.00 | 0.00 | 0.00 | 52 | 1008.4 |
| 20260504203932 | 76 | 270 | 7.0 | 11.3 | 0.00 | 0.00 | 0.00 | 51 | 1008.4 |
| 20260504202734 | 76 | 180 | 3.5 | 8.7 | 0.00 | 0.00 | 0.00 | 51 | 1008.8 |
| 20260504202114 | 74 | 225 | 2.6 | 7.8 | 0.00 | 0.00 | 0.00 | 53 | 1008.4 |
| 20260504201541 | 74 | 248 | 6.1 | 6.1 | 0.00 | 0.00 | 0.00 | 52 | 1008.4 |
| 20260504200320 | 75 | 270 | 7.0 | 7.0 | 0.00 | 0.00 | 0.00 | 52 | 1008.8 |
| 20260504195752 | 74 | 270 | 4.3 | 5.2 | 0.00 | 0.00 | 0.00 | 53 | 1008.4 |
| 20260504195125 | 75 | 270 | 6.1 | 10.4 | 0.00 | 0.00 | 0.00 | 51 | 1008.4 |
| 20260504194552 | 76 | 248 | 8.7 | 8.7 | 0.00 | 0.00 | 0.00 | 52 | 1008.4 |
| 20260504193936 | 76 | 225 | 2.6 | 2.6 | 0.00 | 0.00 | 0.00 | 53 | 1008.4 |
| 20260504193338 | 75 | 270 | 7.0 | 7.0 | 0.00 | 0.00 | 0.00 | 51 | 1008.4 |
| 20260504192722 | 75 | 270 | 2.6 | 7.0 | 0.00 | 0.00 | 0.00 | 53 | 1008.8 |
| 20260504192139 | 75 | 248 | 7.8 | 9.6 | 0.00 | 0.00 | 0.00 | 52 | 1009.1 |
| 20260504191533 | 75 | 270 | 3.5 | 7.8 | 0.00 | 0.00 | 0.00 | 53 | 1009.1 |
| 20260504190949 | 75 | 248 | 6.1 | 13.0 | 0.00 | 0.00 | 0.00 | 52 | 1009.1 |
| 20260504185733 | 75 | 180 | 2.6 | 3.5 | 0.00 | 0.00 | 0.00 | 53 | 1009.4 |
| 20260504184535 | 74 | 270 | 6.1 | 13.9 | 0.00 | 0.00 | 0.00 | 53 | 1009.4 |
| 20260504183943 | 75 | 23 | 1.7 | 5.2 | 0.00 | 0.00 | 0.00 | 54 | 1009.4 |
| 20260504183329 | 73 | 68 | 2.6 | 10.4 | 0.00 | 0.00 | 0.00 | 55 | 1009.8 |
| 20260504182741 | 73 | 270 | 5.2 | 13.0 | 0.00 | 0.00 | 0.00 | 55 | 1009.8 |
| 20260504182142 | 73 | 270 | 7.0 | 7.0 | 0.00 | 0.00 | 0.00 | 57 | 1009.8 |
| 20260504181512 | 72 | 225 | 4.3 | 10.4 | 0.00 | 0.00 | 0.00 | 56 | 1009.8 |
| 20260504180923 | 73 | 248 | 12.2 | 13.9 | 0.00 | 0.00 | 0.00 | 56 | 1010.1 |
| 20260504180320 | 72 | 225 | 7.8 | 11.3 | 0.00 | 0.00 | 0.00 | 56 | 1010.1 |
| 20260504175748 | 72 | 270 | 7.0 | 13.9 | 0.00 | 0.00 | 0.00 | 57 | 1010.1 |
| 20260504174534 | 71 | 270 | 8.7 | 13.0 | 0.00 | 0.00 | 0.00 | 56 | 1010.1 |
| 20260504173931 | 73 | 248 | 2.6 | 6.1 | 0.00 | 0.00 | 0.00 | 59 | 1010.1 |
| 20260504172713 | 71 | 293 | 7.0 | 8.7 | 0.00 | 0.00 | 0.00 | 58 | 1010.4 |
| 20260504172134 | 70 | 248 | 5.2 | 10.4 | 0.00 | 0.00 | 0.00 | 58 | 1010.8 |
| 20260504171554 | 70 | 270 | 9.6 | 13.0 | 0.00 | 0.00 | 0.00 | 58 | 1010.8 |
| 20260504170919 | 70 | 270 | 4.3 | 10.4 | 0.00 | 0.00 | 0.00 | 57 | 1010.8 |
| 20260504170335 | 70 | 270 | 7.8 | 10.4 | 0.00 | 0.00 | 0.00 | 58 | 1010.8 |
| 20260504160347 | 70 | 248 | 12.2 | 12.2 | 0.00 | 0.00 | 0.00 | 57 | 1011.5 |
| 20260504141236 | 65 | 270 | 6.1 | 6.1 | 0.00 | 0.00 | 0.00 | 55 | 1012.1 |
| 20260504140653 | 65 | 270 | 6.1 | 11.3 | 0.00 | 0.00 | 0.00 | 54 | 1012.1 |
| 20260504130633 | 63 | 225 | 4.3 | 5.2 | 0.00 | 0.00 | 0.00 | 57 | 1012.1 |
| 20260504110627 | 48 | 270 | 0.0 | 0.0 | 0.00 | 0.00 | 0.00 | 98 | 1012.8 |
| 20260504081815 | 47 | 113 | 0.0 | 1.7 | 0.00 | 0.00 | 0.00 | 95 | 1013.8 |
| 20260504081216 | 46 | 248 | 0.0 | 0.0 | 0.00 | 0.00 | 0.00 | 94 | 1013.8 |
| 20260504080626 | 47 | 270 | 0.0 | 0.0 | 0.00 | 0.00 | 0.00 | 91 | 1013.8 |